Location: Wiesbaden
(50.0830°N, 8.2500°E)
Time: 22:34:22
(UTC+02:00)

ISS - Pass Details

Date: 20 September 2019
Orbit: 411 x 421 km, 51.6° (Epoch: 19 September)

Event Time Altitude Azimuth Distance (km) Brightness Sun altitude
Rises 21:22:14 0° 228° (SW) 2,335 0.3 -18.2°
Reaches altitude 10° 21:24:23 10° 220° (SW) 1,476 -0.8 -18.5°
Enters shadow 21:26:22 28° 195° (SSW) 802 -2.5 -18.8°
